Weather History for Sidney-Richland, MT

Change the Weather History Date:

Friday, November 16, 2012

  Actual Average Record
Temperature  
Mean Temperature 28 °F -  
Max Temperature 37 °F 42 °F 63 °F (1979)
Min Temperature 19 °F 20 °F -15 °F (1959)
Degree Days  
Heating Degree Days 37    
Moisture  
Dew Point 24 °F    
Average Humidity 86    
Maximum Humidity 100    
Minimum Humidity 70    
Precipitation  
Precipitation 0.00 in - - ()
Sea Level Pressure  
Sea Level Pressure 30.01 in    
Wind  
Wind Speed 6 mph (SSW)    
Max Wind Speed 14 mph    
Max Gust Speed -    
Visibility 10 miles    
Events      
Averages and records for this station are not official NWS values.
T = Trace of Precipitation, MM = Missing Value Source: NWS Daily Summary

Daily Weather History Graph

Daily Weather History Graph

Search for Another Location

Airport:

Trip Planner

Search our weather history database for the weather conditions in past years. The results will help you decide how hot, cold, wet, or windy it might be!

Date:

Astronomy

Nov. 16, 2012 Rise Set
Actual Time 7:04 AM MST 4:18 PM MST
Civil Twilight 6:30 AM MST 4:52 PM MST
Nautical Twilight 5:53 AM MST 5:29 PM MST
Astronomical Twilight 5:16 AM MST 6:06 PM MST
Moon 10:04 AM MST (11/16) 7:17 PM MST (11/16)
Length of Visible Light 10h 21m
Length of Day
9h 13m
Waxing Crescent, 12% of the Moon is Illuminated
Nov 16
Waxing Crescent
Nov 20
First Quarter
Nov 28
Full
Dec 6
Last Quarter
Dec 13
New

Hourly Weather History & Observations

Time (MST) Temp. Windchill Dew Point Humidity Pressure Visibility Wind Dir Wind Speed Gust Speed Precip Events Conditions
12:15 AM 26.6 °F 22.6 °F 24.8 °F 93% 30.13 in 10.0 mi South 3.5 mph - N/A   Clear
12:35 AM 24.8 °F 20.5 °F 23.0 °F 93% 30.12 in 10.0 mi South 3.5 mph - N/A   Clear
1:15 AM 23.0 °F 14.7 °F 19.4 °F 86% 30.10 in 10.0 mi South 6.9 mph - N/A   Clear
1:35 AM 23.0 °F 13.1 °F 21.2 °F 93% 30.10 in 10.0 mi South 9.2 mph - N/A   Clear
1:55 AM 24.8 °F 17.9 °F 21.2 °F 86% 30.09 in 10.0 mi South 5.8 mph - N/A   Clear
2:15 AM 23.0 °F 18.4 °F 21.2 °F 93% 30.08 in 10.0 mi SSW 3.5 mph - N/A   Clear
2:35 AM 23.0 °F 15.8 °F 21.2 °F 93% 30.07 in 10.0 mi SSW 5.8 mph - N/A   Clear
2:55 AM 23.0 °F 15.8 °F 21.2 °F 93% 30.06 in 10.0 mi SSW 5.8 mph - N/A   Clear
3:15 AM 24.8 °F 20.5 °F 19.4 °F 80% 30.05 in 10.0 mi SSW 3.5 mph - N/A   Clear
3:35 AM 24.8 °F 16.1 °F 23.0 °F 93% 30.05 in 10.0 mi SSW 8.1 mph - N/A   Clear
3:55 AM 21.2 °F 14.9 °F 17.6 °F 86% 30.05 in 10.0 mi South 4.6 mph - N/A   Clear
4:15 AM 21.2 °F 11.7 °F 19.4 °F 93% 30.04 in 10.0 mi South 8.1 mph - N/A   Clear
4:35 AM 19.4 °F 9.5 °F 15.8 °F 86% 30.03 in 10.0 mi South 8.1 mph - N/A   Clear
4:55 AM 21.2 °F 12.6 °F 17.6 °F 86% 30.03 in 10.0 mi SSW 6.9 mph - N/A   Clear
5:16 AM 24.8 °F 14.0 °F 23.0 °F 93% 30.02 in 10.0 mi SSW 11.5 mph - N/A   Clear
5:35 AM 26.6 °F 17.5 °F 23.0 °F 86% 30.01 in 10.0 mi SSW 9.2 mph - N/A   Clear
5:55 AM 24.8 °F 14.0 °F 21.2 °F 86% 30.01 in 10.0 mi SSW 11.5 mph - N/A   Clear
6:15 AM 24.8 °F 16.1 °F 21.2 °F 86% 30.01 in 10.0 mi SSW 8.1 mph - N/A   Clear
6:35 AM 24.8 °F 16.1 °F 21.2 °F 86% 30.01 in 10.0 mi South 8.1 mph - N/A   Clear
6:55 AM 23.0 °F 13.9 °F 19.4 °F 86% 30.00 in 10.0 mi South 8.1 mph - N/A   Clear
7:15 AM 21.2 °F 12.6 °F 19.4 °F 93% 30.01 in 10.0 mi South 6.9 mph - N/A   Clear
7:35 AM 21.2 °F 12.6 °F 19.4 °F 93% 30.01 in 10.0 mi South 6.9 mph - N/A   Clear
7:55 AM 23.0 °F 14.7 °F 19.4 °F 86% 30.00 in 10.0 mi SSE 6.9 mph - N/A   Clear
8:15 AM 23.0 °F 17.0 °F 21.2 °F 93% 30.01 in 10.0 mi SE 4.6 mph - N/A   Clear
8:35 AM 24.8 °F 16.9 °F 21.2 °F 86% 30.01 in 10.0 mi SSE 6.9 mph - N/A   Clear
8:55 AM 24.8 °F 16.1 °F 21.2 °F 86% 30.00 in 10.0 mi South 8.1 mph - N/A   Clear
9:15 AM 26.6 °F 19.1 °F 24.8 °F 93% 30.00 in 10.0 mi South 6.9 mph - N/A   Clear
9:35 AM 30.2 °F 20.2 °F 26.6 °F 86% 29.99 in 10.0 mi SSW 12.7 mph - N/A   Clear
9:55 AM 30.2 °F 21.3 °F 26.6 °F 86% 30.00 in 10.0 mi SSW 10.4 mph - N/A   Clear
10:15 AM 32.0 °F 23.0 °F 26.6 °F 80% 29.99 in 10.0 mi South 11.5 mph - N/A   Clear
10:35 AM 32.0 °F 22.5 °F 26.6 °F 80% 29.99 in 10.0 mi South 12.7 mph - N/A   Clear
10:56 AM 33.8 °F 24.3 °F 28.4 °F 81% 29.98 in 10.0 mi South 13.8 mph - N/A   Clear
11:15 AM 33.8 °F 25.8 °F 26.6 °F 75% 29.98 in 10.0 mi SSW 10.4 mph - N/A   Clear
11:35 AM 35.6 °F 27.5 °F 28.4 °F 75% 29.98 in 10.0 mi SSW 11.5 mph - N/A   Clear
12:15 PM 35.6 °F 30.7 °F 28.4 °F 75% 29.97 in 10.0 mi South 5.8 mph - N/A   Clear
12:35 PM 37.4 °F 32.1 °F 28.4 °F 70% 29.97 in 10.0 mi SSW 6.9 mph - N/A   Clear
12:55 PM 37.4 °F 29.8 °F 28.4 °F 70% 29.96 in 10.0 mi SSW 11.5 mph - N/A   Clear
1:15 PM 37.4 °F 31.4 °F 28.4 °F 70% 29.97 in 10.0 mi SSW 8.1 mph - N/A   Clear
1:35 PM 37.4 °F 30.8 °F 28.4 °F 70% 29.96 in 10.0 mi SSW 9.2 mph - N/A   Clear
2:15 PM 37.4 °F 32.8 °F 30.2 °F 75% 29.96 in 10.0 mi SSW 5.8 mph - N/A   Clear
2:35 PM 35.6 °F 30.7 °F 30.2 °F 81% 29.96 in 10.0 mi SSW 5.8 mph - N/A   Clear
2:55 PM 35.6 °F 30.7 °F 30.2 °F 81% 29.96 in 10.0 mi SSW 5.8 mph - N/A   Clear
3:15 PM 35.6 °F 32.8 °F 30.2 °F 81% 29.96 in 10.0 mi SW 3.5 mph - N/A   Clear
3:35 PM 33.8 °F 28.6 °F 30.2 °F 87% 29.97 in 10.0 mi SSW 5.8 mph - N/A   Clear
3:55 PM 33.8 °F 27.7 °F 28.4 °F 81% 29.97 in 10.0 mi SSW 6.9 mph - N/A   Clear
4:15 PM 33.8 °F 29.6 °F 28.4 °F 81% 29.98 in 10.0 mi SW 4.6 mph - N/A   Clear
4:35 PM 32.0 °F 28.7 °F 28.4 °F 87% 29.98 in 10.0 mi SW 3.5 mph - N/A   Clear
4:55 PM 33.8 °F - 28.4 °F 81% 29.98 in 10.0 mi Calm Calm - N/A   Clear
5:15 PM 30.2 °F - 28.4 °F 93% 29.99 in 10.0 mi Calm Calm - N/A   Clear
5:35 PM 30.2 °F - 26.6 °F 86% 29.99 in 10.0 mi Calm Calm - N/A   Clear
5:55 PM 30.2 °F - 26.6 °F 86% 29.99 in 10.0 mi Calm Calm - N/A   Clear
6:15 PM 28.4 °F - 24.8 °F 86% 29.99 in 10.0 mi Calm Calm - N/A   Clear
6:35 PM 28.4 °F - 26.6 °F 93% 29.99 in 10.0 mi Calm Calm - N/A   Clear
6:55 PM 30.2 °F - 26.6 °F 86% 29.99 in 10.0 mi Calm Calm - N/A   Clear
7:15 PM 30.2 °F - 26.6 °F 86% 29.99 in 10.0 mi Calm Calm - N/A   Clear
7:35 PM 30.2 °F - 26.6 °F 86% 29.99 in 10.0 mi Calm Calm - N/A   Clear
7:55 PM 30.2 °F - 26.6 °F 86% 29.99 in 10.0 mi Calm Calm - N/A   Clear
8:55 PM 26.6 °F 21.2 °F 24.8 °F 93% 29.98 in 10.0 mi SSW 4.6 mph - N/A   Clear
9:15 PM 28.4 °F 24.6 °F 24.8 °F 86% 29.99 in 10.0 mi WSW 3.5 mph - N/A   Clear
9:35 PM 30.2 °F - 26.6 °F 86% 29.99 in 10.0 mi Calm Calm - N/A   Clear
9:55 PM 26.6 °F - 24.8 °F 93% 29.99 in 10.0 mi Calm Calm - N/A   Clear
10:15 PM 26.6 °F 22.6 °F 26.6 °F 100% 30.00 in 10.0 mi SSW 3.5 mph - N/A   Partly Cloudy
10:55 PM 26.6 °F - 23.0 °F 86% 30.00 in 10.0 mi Calm Calm - N/A   Clear
11:15 PM 26.6 °F - 23.0 °F 86% 30.01 in 10.0 mi Calm Calm - N/A   Clear
11:35 PM 26.6 °F - 24.8 °F 93% 30.01 in 10.0 mi Calm Calm - N/A   Clear
11:55 PM 24.8 °F - 21.2 °F 86% 30.01 in 10.0 mi Calm Calm - N/A   Clear